STARLINK-33678, 63509

Orbit data source: Space-Track

STARLINK-33678, 63509 is a payload satellite owned by SpaceX/Seattle (US) in LEO that was launched on Mon, 07 Apr 2025 UTC via an FALCON 9 launch vehicle from the Air Force Western Test Range (AFWTR). Payload-class satellites include a variety of spacecraft equipped with specific instruments for various scientific and technological missions. These include communications satellites like Starlink; space stations such as the ISS; scientific satellites like the Hubble; Earth observation satellites from companies like Planet Labs, Umbra, and HawkEye 360; GPS; miniature CubeSats for education and research; and military/defense satellites.

Loading next visibility...
Identifier
63509, 2025-071S
Orbit
LEO
Country
Flag of USUS
Related business
Manufacturer
SpaceX/Seattle
Mission
Operational Commercial Communications
Bus & Motor
STARLINK V2MO, Unknown motor
Mass
575 kg wet, ~530 kg dry
Launch date (UTC)
2025-04-07 (7 months ago)
Launch vehicle
FALCON 9
Launch site
Air Force Western Test Range (AFWTR)
Object type
Payload
Rocket body
Debris
Shape & HBR
Box + 2 Pan, 17.7 m
Radar Cross Section
36.964 m², Large (>1 m²)

Expand to show TLE details & history
Last TLE update: 20 hours ago

TLE from 20 hours ago
0 STARLINK-33678
1 63509U 25071S   25306.48564302  .00029800  00000-0  10135-2 0  9997
2 63509  53.1603  10.7874 0001133  80.1716 279.9413 15.30224815 33025
Epoch: 2025-11-02T11:39Z
TLE epoch observation values (Epoch: 2025-11-02T11:39:19.556Z)
Latitude
-0.00002°
Longitude
153.95521°
Altitude
475.907 km
Speed
7.629 km/s
True Right ascension
00h 43m 08s
True Declination
0° 00' 00"
Sunlit
Object was in full shadow at epoch
Visualization orbit readout
Latitude
Unknown
Longitude
Unknown
Altitude
Unknown
Speed
Unknown
Apparent Right ascension
Unknown
Apparent Declination
Unknown
Sunlit
N/A
Visualization observer readout
Local Sidereal Time
03:33:00
Azimuth
Unknown
Elevation
Unknown
Doppler factor
Unknown
Orbital elements
Apogee altitude
476.174 km
Perigee altitude
474.621 km
Semi-major axis
6,853.534 km
Eccentricity
0.00011
Inclination
53.1603°
RAAN
10.7874°
Arg. of periapsis
80.1716°
True anomaly
279.92851°
Mean anomaly
279.9413°
Eccentric anomaly
279.93491°
Mean motion
3.82535 °/min
Orbital period
94.11 mins
BSTAR
0.0010135
Loading maneuver chart data...
Computing Atmospheric mass density...
Loading historical data...
Loading historical data...
Loading historical data...
Loading historical data...
Loading historical data...
Loading historical data...
Loading historical data...

Documentation

Showing up to 5 results
|